| time (UTC) | temp C | wind direction | speed KPH | gust KPH | rain 1hr cm | rain 24hr cm | rain mn cm | humidity % | barometer mb |
| 20260505040815 | 13 | 233 | 12.9 | 25.7 | 0.00 | 0.00 | 0.00 | 57 | 1011.0 |
| 20260505035815 | 14 | 194 | 12.9 | 20.9 | 0.00 | 0.00 | 0.00 | 52 | 1010.9 |
| 20260505034815 | 15 | 194 | 9.7 | 16.1 | 0.00 | 0.00 | 0.00 | 48 | 1010.6 |
| 20260505033815 | 15 | 185 | 4.8 | 11.3 | 0.00 | 0.00 | 0.00 | 47 | 1010.3 |
| 20260505032815 | 15 | 240 | 8.0 | 14.5 | 0.00 | 0.00 | 0.00 | 47 | 1010.0 |
| 20260505031815 | 15 | 215 | 6.4 | 11.3 | 0.00 | 0.00 | 0.00 | 47 | 1009.9 |
| 20260505030815 | 15 | 245 | 4.8 | 12.9 | 0.00 | 0.00 | 0.00 | 49 | 1010.1 |
| 20260505025815 | 15 | 214 | 9.7 | 16.1 | 0.00 | 0.00 | 0.00 | 52 | 1009.5 |
| 20260505024815 | 16 | 241 | 16.1 | 27.4 | 0.00 | 0.00 | 0.00 | 46 | 1009.7 |
| 20260505023815 | 16 | 177 | 4.8 | 9.7 | 0.00 | 0.00 | 0.00 | 44 | 1009.4 |
| 20260505022815 | 16 | 158 | 4.8 | 12.9 | 0.00 | 0.00 | 0.00 | 45 | 1008.9 |
| 20260505021835 | 16 | 130 | 6.4 | 11.3 | 0.00 | 0.00 | 0.00 | 45 | 1008.9 |
| 20260505020835 | 16 | 157 | 11.3 | 14.5 | 0.00 | 0.00 | 0.00 | 45 | 1008.9 |
| 20260505015815 | 16 | 144 | 11.3 | 19.3 | 0.00 | 0.00 | 0.00 | 45 | 1008.7 |
| 20260505014815 | 16 | 127 | 6.4 | 16.1 | 0.00 | 0.00 | 0.00 | 47 | 1008.9 |
| 20260505013815 | 17 | 136 | 11.3 | 22.5 | 0.00 | 0.00 | 0.00 | 47 | 1008.8 |
| 20260505012815 | 17 | 131 | 11.3 | 19.3 | 0.00 | 0.00 | 0.00 | 45 | 1008.8 |
| 20260505011817 | 18 | 106 | 16.1 | 20.9 | 0.00 | 0.00 | 0.00 | 42 | 1009.0 |
| 20260505010835 | 18 | 174 | 6.4 | 11.3 | 0.00 | 0.00 | 0.00 | 35 | 1008.7 |
| 20260505005817 | 18 | 170 | 3.2 | 6.4 | 0.00 | 0.00 | 0.00 | 33 | 1008.7 |
| 20260505004817 | 18 | 165 | 0.0 | 8.0 | 0.00 | 0.00 | 0.00 | 33 | 1008.7 |
| 20260505003857 | 18 | 158 | 8.0 | 12.9 | 0.00 | 0.00 | 0.00 | 33 | 1008.7 |
| 20260505002817 | 18 | 167 | 8.0 | 17.7 | 0.00 | 0.00 | 0.00 | 33 | 1008.5 |
| 20260505001815 | 19 | 111 | 1.6 | 9.7 | 0.00 | 0.00 | 0.00 | 31 | 1008.8 |
| 20260505000817 | 19 | 67 | 6.4 | 12.9 | 0.00 | 0.00 | 0.00 | 32 | 1008.9 |
| 20260504235817 | 19 | 56 | 8.0 | 12.9 | 0.00 | 0.00 | 0.00 | 33 | 1008.9 |
| 20260504234817 | 20 | 114 | 1.6 | 4.8 | 0.00 | 0.00 | 0.00 | 29 | 1009.2 |
| 20260504233816 | 19 | 257 | 3.2 | 11.3 | 0.00 | 0.00 | 0.00 | 31 | 1008.8 |
| 20260504232817 | 18 | 324 | 1.6 | 3.2 | 0.00 | 0.00 | 0.00 | 32 | 1008.7 |
| 20260504231816 | 18 | 353 | 9.7 | 12.9 | 0.00 | 0.00 | 0.00 | 35 | 1008.6 |
| 20260504230817 | 18 | 321 | 12.9 | 17.7 | 0.00 | 0.00 | 0.00 | 36 | 1008.5 |
| 20260504225816 | 18 | 288 | 8.0 | 17.7 | 0.00 | 0.00 | 0.00 | 35 | 1008.9 |
| 20260504224816 | 17 | 251 | 19.3 | 25.7 | 0.00 | 0.00 | 0.00 | 36 | 1009.1 |
| 20260504223816 | 18 | 283 | 20.9 | 25.7 | 0.00 | 0.00 | 0.00 | 37 | 1009.1 |
| 20260504222817 | 18 | 291 | 16.1 | 27.4 | 0.00 | 0.00 | 0.00 | 37 | 1009.1 |
| 20260504221816 | 18 | 288 | 19.3 | 27.4 | 0.00 | 0.00 | 0.00 | 39 | 1009.4 |
| 20260504220816 | 19 | 263 | 17.7 | 29.0 | 0.00 | 0.00 | 0.00 | 37 | 1009.3 |
| 20260504215817 | 18 | 290 | 16.1 | 25.7 | 0.00 | 0.00 | 0.00 | 38 | 1008.9 |
| 20260504214816 | 18 | 291 | 17.7 | 24.1 | 0.00 | 0.00 | 0.00 | 40 | 1009.1 |
| 20260504213816 | 17 | 279 | 11.3 | 22.5 | 0.00 | 0.00 | 0.00 | 39 | 1008.9 |
| 20260504212817 | 17 | 277 | 11.3 | 17.7 | 0.00 | 0.00 | 0.00 | 41 | 1009.3 |
| 20260504211817 | 17 | 263 | 22.5 | 29.0 | 0.00 | 0.00 | 0.00 | 39 | 1009.5 |
| 20260504210836 | 17 | 279 | 12.9 | 22.5 | 0.00 | 0.00 | 0.00 | 40 | 1009.5 |
| 20260504205816 | 18 | 305 | 19.3 | 27.4 | 0.00 | 0.00 | 0.00 | 41 | 1009.6 |
| 20260504204816 | 18 | 266 | 16.1 | 27.4 | 0.00 | 0.00 | 0.00 | 37 | 1009.5 |
| 20260504203817 | 20 | 281 | 12.9 | 25.7 | 0.00 | 0.00 | 0.00 | 34 | 1010.1 |
| 20260504202817 | 20 | 162 | 9.7 | 14.5 | 0.00 | 0.00 | 0.00 | 34 | 1010.2 |
| 20260504201837 | 20 | 147 | 8.0 | 17.7 | 0.00 | 0.00 | 0.00 | 33 | 1010.1 |
| 20260504200816 | 20 | 100 | 14.5 | 22.5 | 0.00 | 0.00 | 0.00 | 33 | 1010.0 |
| 20260504195816 | 20 | 141 | 19.3 | 24.1 | 0.00 | 0.00 | 0.00 | 31 | 1009.7 |
| 20260504194816 | 20 | 120 | 19.3 | 25.7 | 0.00 | 0.00 | 0.00 | 32 | 1009.9 |
| 20260504193837 | 20 | 141 | 11.3 | 22.5 | 0.00 | 0.00 | 0.00 | 32 | 1009.9 |
| 20260504192816 | 20 | 125 | 17.7 | 25.7 | 0.00 | 0.00 | 0.00 | 32 | 1010.7 |
| 20260504191816 | 20 | 99 | 14.5 | 22.5 | 0.00 | 0.00 | 0.00 | 33 | 1010.8 |
| 20260504190816 | 21 | 119 | 12.9 | 24.1 | 0.00 | 0.00 | 0.00 | 32 | 1010.8 |
| 20260504185816 | 20 | 126 | 16.1 | 22.5 | 0.00 | 0.00 | 0.00 | 34 | 1011.1 |
| 20260504184816 | 20 | 122 | 12.9 | 24.1 | 0.00 | 0.00 | 0.00 | 34 | 1011.1 |
| 20260504183837 | 20 | 99 | 11.3 | 16.1 | 0.00 | 0.00 | 0.00 | 34 | 1011.3 |
| 20260504182816 | 20 | 106 | 6.4 | 19.3 | 0.00 | 0.00 | 0.00 | 34 | 1011.0 |
| 20260504181836 | 20 | 88 | 11.3 | 16.1 | 0.00 | 0.00 | 0.00 | 35 | 1011.1 |
| 20260504180836 | 19 | 137 | 9.7 | 16.1 | 0.00 | 0.00 | 0.00 | 36 | 1011.4 |
| 20260504175816 | 19 | 95 | 8.0 | 20.9 | 0.00 | 0.00 | 0.00 | 38 | 1012.2 |
| 20260504174816 | 19 | 88 | 14.5 | 22.5 | 0.00 | 0.00 | 0.00 | 37 | 1012.4 |
| 20260504173816 | 19 | 82 | 9.7 | 22.5 | 0.00 | 0.00 | 0.00 | 38 | 1012.4 |
| 20260504172816 | 18 | 86 | 17.7 | 22.5 | 0.00 | 0.00 | 0.00 | 38 | 1013.0 |
| 20260504171836 | 18 | 98 | 11.3 | 17.7 | 0.00 | 0.00 | 0.00 | 37 | 1013.0 |
| 20260504170837 | 18 | 130 | 12.9 | 19.3 | 0.00 | 0.00 | 0.00 | 38 | 1013.1 |
| 20260504150815 | 16 | 137 | 4.8 | 8.0 | 0.00 | 0.00 | 0.00 | 45 | 1014.0 |
| 20260504140815 | 13 | 327 | 1.6 | 4.8 | 0.00 | 0.00 | 0.00 | 54 | 1013.3 |
| 20260504130816 | 12 | 11 | 3.2 | 6.4 | 0.00 | 0.00 | 0.00 | 59 | 1013.5 |
| 20260504081817 | 14 | 118 | 3.2 | 6.4 | 0.00 | 0.00 | 0.00 | 32 | 1013.3 |
| 20260504080817 | 14 | 269 | 8.0 | 17.7 | 0.00 | 0.00 | 0.00 | 32 | 1013.2 |
| 20260504045815 | 17 | 321 | 9.7 | 16.1 | 0.00 | 0.00 | 0.00 | 25 | 1013.0 |